Skip Page Navigation
NASA JPL Caltech
NASA Logo - Jet Propulsion Laboratory + View the NASA Portal
+ Near-Earth Object (NEO) Program
Search JPL
JPL Home Earth Solar System Stars & Galaxies Technology
JPL Solar System Dynamics
BODIES ORBITS EPHEMERIDES TOOLS PHYSICAL DATA DISCOVERY FAQ SITE MAP
JPL Small-Body Database Browser
Search: [ help ]  
30417 Staudt (2000 LF)
Classification: Main-belt Asteroid          SPK-ID: 2030417
Ephemeris | Orbit Diagram | Orbital Elements | Physical Parameters | Discovery Circumstances ]

[ show orbit diagram ]
Orbital Elements at Epoch 2456400.5 (2013-Apr-18.0) TDB
Reference: JPL 1 (heliocentric ecliptic J2000)
 Element Value Uncertainty (1-sigma)   Units 
e .2050277003307849 7.4722e-08  
a 2.659942775082507 3.5192e-08 AU
q 2.114580824895854 2.0896e-07 AU
i 3.607346248471667 6.345e-06 deg
node 104.2738483131088 0.00012323 deg
peri 213.8350818747208 0.00012446 deg
M 298.1913808394804 2.2008e-05 deg
tp 2456672.552930039749
(2014-Jan-15.05293004)
0.00010016 JED
period 1584.553354281509
4.34
3.1446e-05
8.609e-08
d
yr
n .2271933595844341 4.5087e-09 deg/d
Q 3.205304725269159 4.2407e-08 AU
  Orbit Determination Parameters
   # obs. used (total)      695  
   data-arc span      7043 days (19.28 yr)  
   first obs. used      1994-01-04  
   last obs. used      2013-04-17  
   planetary ephem.      DE405  
   SB-pert. ephem.      SB405-CPV-2  
   condition code      0  
   fit RMS      .58371  
   data source      ORB  
   producer      Otto Matic  
   solution date      2013-Apr-29 14:54:53  

Additional Information
 Earth MOID = 1.10227 AU 
 T_jup = 3.353 
[ show covariance matrix ]

Ephemeris | Orbit Diagram | Orbital Elements | Physical Parameters | Discovery Circumstances ]

Physical Parameter Table
Parameter Symbol Value Units Sigma Reference Notes
absolute magnitude H 14.4 mag n/a PDS3 (MPO 16604)  

30417 Staudt           Discovered 2000 June 1 by P. G. Comba at Prescott.
Karl Georg Christian von Staudt (1798-1867), a professor at the University of Erlangen, gave the first fully rigorous treatment of projective geometry, without making use of distances, perpendiculars and angles.
NOTE: some special characters may not display properly (any characters within {} are an attempt to place the proper accent above a character)
Reference: 20020328/MPCPages.arcLast Updated: 2003-10-02

Alternate Designations
 2000 LF = 1995 DV10 
Ephemeris | Orbit Diagram | Orbital Elements | Physical Parameters | Discovery Circumstances ]
ABOUT SSD CREDITS/AWARDS PRIVACY/COPYRIGHT GLOSSARY LINKS
FirstGov 2013-May-21 21:27 UT
(server date/time)  
NASA Home Page
Site Manager:   Donald K. Yeomans
Webmaster  Alan B. Chamberlin